Weather History for Barter Island, AK

Change the Weather History Date:

Saturday, May 4, 2013

  Actual Average Record
Temperature  
Mean Temperature -1 °F -  
Max Temperature 6 °F 19 °F 32 °F (2014)
Min Temperature -11 °F 7 °F -11 °F (2013)
Degree Days  
Heating Degree Days 66    
Moisture  
Dew Point -6 °F    
Average Humidity 82    
Maximum Humidity 87    
Minimum Humidity 77    
Precipitation  
Precipitation 0.00 in - - ()
Sea Level Pressure  
Sea Level Pressure 30.22 in    
Wind  
Wind Speed 4 mph (ESE)    
Max Wind Speed 15 mph    
Max Gust Speed -    
Visibility 8 miles    
Events Fog , Snow    
Averages and records for this station are not official NWS values.
T = Trace of Precipitation, MM = Missing Value Source: NWS Daily Summary

Daily Weather History Graph

Daily Weather History Graph

Search for Another Location

Airport:

Trip Planner

Search our weather history database for the weather conditions in past years. The results will help you decide how hot, cold, wet, or windy it might be!

Date:

Astronomy

May. 04, 2013 Rise Set
Actual Time 3:41 AM AKDT 11:26 PM AKDT
Civil Twilight Sun does not rise Sun does not rise
Nautical Twilight Sun does not rise Sun does not rise
Astronomical Twilight Sun does not rise Sun does not rise
Moon 4:00 AM AKDT (5/4) 3:29 PM AKDT (5/4)
Length of Visible Light 24h 00m
Length of Day
19h 44m
Waning Crescent, 25% of the Moon is Illuminated
May 4
Waning Crescent
May 9
New
May 17
First Quarter
May 24
Full
May 31
Last Quarter

Hourly Weather History & Observations

Time (AKDT) Temp. Windchill Dew Point Humidity Pressure Visibility Wind Dir Wind Speed Gust Speed Precip Events Conditions
12:01 AM -0.9 °F - -5.1 °F 83% 30.28 in 10.0 mi Calm Calm - N/A   Unknown
1:01 AM -4.0 °F - -8.0 °F 83% 30.28 in 10.0 mi Calm Calm - N/A   Unknown
2:01 AM -4.0 °F - -8.0 °F 83% 30.27 in 10.0 mi Calm Calm - N/A   Unknown
3:01 AM -6.0 °F - -9.9 °F 83% 30.27 in 10.0 mi Calm Calm - N/A   Unknown
3:12 AM -7.6 °F - -11.2 °F 84% 30.27 in 1.5 mi Calm Calm - N/A   Mist
3:14 AM -7.6 °F - -11.2 °F 84% 30.27 in 0.8 mi Calm Calm - N/A   Mist
3:20 AM -7.6 °F - -11.2 °F 84% 30.27 in 0.2 mi Calm Calm - N/A Fog Light Freezing Fog
3:58 AM -11.2 °F -23.0 °F -14.8 °F 84% 30.27 in 0.5 mi East 4.6 mph - N/A Fog Light Freezing Fog
4:01 AM -11.0 °F -22.8 °F -15.0 °F 83% 30.27 in 0.5 mi ESE 4.6 mph - N/A Fog Light Freezing Fog
4:05 AM -11.2 °F -20.6 °F -14.8 °F 84% 30.26 in 1.2 mi ESE 3.5 mph - N/A   Mist
4:07 AM -11.2 °F -20.6 °F -14.8 °F 84% 30.26 in 3.0 mi ESE 3.5 mph - N/A   Mist
5:01 AM -11.9 °F -23.8 °F -16.1 °F 82% 30.26 in 10.0 mi ESE 4.6 mph - N/A   Unknown
6:01 AM -11.9 °F -23.8 °F -16.1 °F 82% 30.25 in 9.0 mi East 4.6 mph - N/A   Unknown
7:01 AM -9.0 °F -26.4 °F -11.9 °F 87% 30.24 in 10.0 mi ESE 9.2 mph - N/A   Unknown
8:01 AM -8.0 °F -21.0 °F -11.9 °F 83% 30.23 in 10.0 mi ESE 5.8 mph - N/A   Unknown
9:01 AM -6.0 °F -18.6 °F -9.9 °F 83% 30.22 in 8.0 mi ESE 5.8 mph - N/A   Unknown
10:01 AM -2.0 °F -17.7 °F -6.0 °F 83% 30.21 in 10.0 mi ESE 9.2 mph - N/A   Unknown
11:01 AM -0.9 °F -18.3 °F -5.1 °F 83% 30.21 in 9.0 mi ESE 11.5 mph - N/A   Unknown
12:01 PM 1.0 °F -14.0 °F -2.9 °F 83% 30.20 in 10.0 mi ESE 9.2 mph - N/A   Unknown
1:01 PM 6.1 °F -0.9 °F 1.0 °F 80% 30.19 in 9.0 mi SE 3.5 mph - 0.00 in Snow Light Snow
2:01 PM 8.1 °F -9.0 °F 3.0 °F 80% 30.18 in 9.0 mi East 15.0 mph - 0.00 in   Unknown
3:01 PM 8.1 °F -7.7 °F 3.0 °F 80% 30.18 in 10.0 mi East 12.7 mph - 0.00 in   Unknown
4:01 PM 9.0 °F -5.9 °F 3.0 °F 77% 30.17 in 8.0 mi East 11.5 mph - 0.00 in Snow Light Snow
5:01 PM 9.0 °F -5.9 °F 3.0 °F 77% 30.17 in 9.0 mi East 11.5 mph - 0.00 in Snow Light Snow
6:01 PM 9.0 °F -5.1 °F 3.0 °F 77% 30.16 in 9.0 mi East 10.4 mph - 0.00 in Snow Light Snow
7:01 PM 9.0 °F -3.2 °F 3.0 °F 77% 30.16 in 10.0 mi East 8.1 mph - 0.00 in   Unknown
8:01 PM 8.1 °F -4.3 °F 3.0 °F 80% 30.17 in 10.0 mi East 8.1 mph - 0.00 in   Unknown
9:01 PM 7.0 °F -4.5 °F 3.0 °F 84% 30.17 in 8.0 mi East 6.9 mph - 0.00 in Snow Light Snow
10:01 PM 6.1 °F -2.8 °F 3.0 °F 87% 30.17 in 9.0 mi East 4.6 mph - 0.00 in Snow Light Snow
11:01 PM 6.1 °F -2.8 °F 1.9 °F 83% 30.18 in 9.0 mi ENE 4.6 mph - 0.00 in Snow Light Snow